Time,TemperatureF,DewpointF,PressureIn,WindDirection,WindDirectionDegrees,WindSpeedMPH,WindSpeedGustMPH,Humidity,HourlyPrecipIn,Conditions,Clouds,dailyrainin,SoftwareType,DateUTC
2013-07-27 00:01:00,66.1,66.1,34.96,South,172,0.7,3.0,100,0.00,n/a,n/a,-99.99,Henriksen +1-Wire,2013-07-27 04:01:00,
2013-07-27 00:03:00,66.1,66.1,34.96,ENE,70,0.3,3.0,100,0.00,n/a,n/a,-99.99,Henriksen +1-Wire,2013-07-27 04:03:00,
2013-07-27 00:04:00,66.0,66.0,34.96,NE,43,0.5,3.0,100,0.00,n/a,n/a,-99.99,Henriksen +1-Wire,2013-07-27 04:04:00,
2013-07-27 00:06:00,66.0,66.0,34.96,NE,39,1.3,2.4,100,0.00,n/a,n/a,-99.99,Henriksen +1-Wire,2013-07-27 04:06:00,
2013-07-27 00:08:00,66.0,66.0,34.96,NE,37,0.3,2.4,100,0.00,n/a,n/a,-99.99,Henriksen +1-Wire,2013-07-27 04:08:00,
2013-07-27 00:13:00,65.8,65.8,34.97,East,80,0.4,2.4,100,0.00,n/a,n/a,-99.99,Henriksen +1-Wire,2013-07-27 04:13:00,
2013-07-27 00:19:00,65.7,65.7,34.98,East,81,0.6,2.0,100,0.00,n/a,n/a,-99.99,Henriksen +1-Wire,2013-07-27 04:19:00,
2013-07-27 00:24:00,65.5,65.5,34.98,NE,37,0.3,2.4,100,0.00,n/a,n/a,-99.99,Henriksen +1-Wire,2013-07-27 04:24:00,
2013-07-27 00:29:00,65.4,65.4,34.98,NE,42,0.4,2.4,100,0.00,n/a,n/a,-99.99,Henriksen +1-Wire,2013-07-27 04:29:00,
2013-07-27 00:34:00,65.3,65.3,34.98,North,4,0.9,2.1,100,0.00,n/a,n/a,-99.99,Henriksen +1-Wire,2013-07-27 04:34:00,
2013-07-27 00:40:00,65.1,65.1,34.98,NNE,23,0.9,2.1,100,0.00,n/a,n/a,-99.99,Henriksen +1-Wire,2013-07-27 04:40:00,
2013-07-27 00:45:00,65.0,65.0,34.98,North,4,0.8,1.9,100,0.00,n/a,n/a,-99.99,Henriksen +1-Wire,2013-07-27 04:45:00,
2013-07-27 00:50:00,64.9,64.9,34.98,North,10,1.4,2.4,100,0.00,n/a,n/a,-99.99,Henriksen +1-Wire,2013-07-27 04:50:00,
2013-07-27 02:52:00,62.4,62.4,34.98,ENE,73,0.2,2.1,100,0.00,n/a,n/a,-99.99,Henriksen +1-Wire,2013-07-27 06:52:00,
2013-07-27 02:58:00,62.3,62.3,34.98,NE,51,1.0,2.4,100,0.00,n/a,n/a,-99.99,Henriksen +1-Wire,2013-07-27 06:58:00,
2013-07-27 03:03:00,62.2,62.2,34.98,NE,48,1.1,2.4,100,0.00,n/a,n/a,-99.99,Henriksen +1-Wire,2013-07-27 07:03:00,
2013-07-27 03:09:00,62.1,62.1,34.98,NE,49,1.5,2.4,100,0.00,n/a,n/a,-99.99,Henriksen +1-Wire,2013-07-27 07:09:00,
2013-07-27 03:14:00,62.0,62.0,34.98,NE,50,1.0,2.4,100,0.00,n/a,n/a,-99.99,Henriksen +1-Wire,2013-07-27 07:14:00,
2013-07-27 03:19:00,61.9,61.9,34.98,NE,50,1.2,2.5,100,0.01,n/a,n/a,-99.99,Henriksen +1-Wire,2013-07-27 07:19:00,
2013-07-27 03:24:00,61.9,61.9,34.99,ENE,59,0.7,2.5,100,0.01,n/a,n/a,-99.99,Henriksen +1-Wire,2013-07-27 07:24:00,
2013-07-27 03:30:00,61.8,61.8,34.99,NE,50,1.2,2.4,100,0.01,n/a,n/a,-99.99,Henriksen +1-Wire,2013-07-27 07:30:00,
2013-07-27 03:35:00,61.8,61.8,34.98,NNE,13,1.0,3.0,100,0.01,n/a,n/a,-99.99,Henriksen +1-Wire,2013-07-27 07:35:00,
2013-07-27 03:40:00,61.7,61.7,34.98,NNE,13,0.9,3.0,100,0.01,n/a,n/a,-99.99,Henriksen +1-Wire,2013-07-27 07:40:00,
2013-07-27 03:45:00,61.8,61.8,34.99,North,359,1.2,3.0,100,0.01,n/a,n/a,-99.99,Henriksen +1-Wire,2013-07-27 07:45:00,
2013-07-27 03:50:00,61.8,61.8,34.99,North,1,1.3,3.2,100,0.01,n/a,n/a,-99.99,Henriksen +1-Wire,2013-07-27 07:50:00,
2013-07-27 03:55:00,61.8,61.8,35.01,NNE,28,1.0,3.2,100,0.01,n/a,n/a,-99.99,Henriksen +1-Wire,2013-07-27 07:55:00,
2013-07-27 04:00:00,61.8,61.8,35.01,NNE,26,1.5,4.2,100,0.01,n/a,n/a,-99.99,Henriksen +1-Wire,2013-07-27 08:00:00,
2013-07-27 04:06:00,61.7,61.7,35.01,North,10,2.0,4.2,100,0.01,n/a,n/a,-99.99,Henriksen +1-Wire,2013-07-27 08:06:00,
2013-07-27 04:11:00,61.6,61.6,35.01,NNW,338,1.2,3.0,100,0.01,n/a,n/a,-99.99,Henriksen +1-Wire,2013-07-27 08:11:00,
2013-07-27 04:16:00,61.7,61.7,35.01,North,351,1.5,3.6,100,0.01,n/a,n/a,-99.99,Henriksen +1-Wire,2013-07-27 08:16:00,
2013-07-27 06:18:00,61.1,61.1,35.09,NNW,348,0.9,3.6,100,0.00,n/a,n/a,-99.99,Henriksen +1-Wire,2013-07-27 10:18:00,
2013-07-27 06:23:00,61.2,61.2,35.09,NE,34,0.3,2.4,100,0.00,n/a,n/a,-99.99,Henriksen +1-Wire,2013-07-27 10:23:00,
2013-07-27 06:29:00,61.3,61.3,35.09,North,5,1.0,3.0,100,0.00,n/a,n/a,-99.99,Henriksen +1-Wire,2013-07-27 10:29:00,
2013-07-27 06:34:00,61.4,61.4,35.09,North,353,1.8,6.7,100,0.00,n/a,n/a,-99.99,Henriksen +1-Wire,2013-07-27 10:34:00,
2013-07-27 06:40:00,61.7,61.7,35.09,North,359,1.0,6.7,100,0.00,n/a,n/a,-99.99,Henriksen +1-Wire,2013-07-27 10:40:00,
2013-07-27 06:45:00,62.0,62.0,35.09,NNW,348,1.4,4.1,100,0.00,n/a,n/a,-99.99,Henriksen +1-Wire,2013-07-27 10:45:00,
2013-07-27 06:51:00,62.2,62.2,35.10,NNW,341,1.9,4.1,100,0.00,n/a,n/a,-99.99,Henriksen +1-Wire,2013-07-27 10:51:00,
2013-07-27 06:56:00,62.4,62.4,35.12,North,349,0.8,4.1,100,0.00,n/a,n/a,-99.99,Henriksen +1-Wire,2013-07-27 10:56:00,
2013-07-27 07:01:00,62.5,62.5,35.12,North,357,1.8,3.7,100,0.00,n/a,n/a,-99.99,Henriksen +1-Wire,2013-07-27 11:01:00,
2013-07-27 07:07:00,62.6,62.6,35.14,North,354,1.6,5.6,100,0.00,n/a,n/a,-99.99,Henriksen +1-Wire,2013-07-27 11:07:00,
2013-07-27 07:12:00,62.7,62.7,35.14,North,358,0.7,5.6,100,0.00,n/a,n/a,-99.99,Henriksen +1-Wire,2013-07-27 11:12:00,
2013-07-27 07:18:00,62.9,62.9,35.14,North,359,1.6,6.0,100,0.00,n/a,n/a,-99.99,Henriksen +1-Wire,2013-07-27 11:18:00,
2013-07-27 07:23:00,62.9,62.9,35.14,North,0,1.1,6.0,100,0.00,n/a,n/a,-99.99,Henriksen +1-Wire,2013-07-27 11:23:00,
2013-07-27 07:29:00,63.1,63.1,35.14,North,353,1.5,4.3,100,0.00,n/a,n/a,-99.99,Henriksen +1-Wire,2013-07-27 11:29:00,
2013-07-27 07:35:00,63.3,63.3,35.14,North,3,1.5,4.3,100,0.00,n/a,n/a,-99.99,Henriksen +1-Wire,2013-07-27 11:35:00,
2013-07-27 09:38:00,70.8,67.3,35.19,South,177,1.6,6.0,88,0.00,n/a,n/a,-99.99,Henriksen +1-Wire,2013-07-27 13:38:00,
2013-07-27 09:43:00,71.1,67.2,35.19,NE,36,1.5,6.0,87,0.00,n/a,n/a,-99.99,Henriksen +1-Wire,2013-07-27 13:43:00,
2013-07-27 09:48:00,71.4,67.3,35.19,NNE,21,1.9,7.5,86,0.00,n/a,n/a,-99.99,Henriksen +1-Wire,2013-07-27 13:48:00,
2013-07-27 09:53:00,71.8,67.5,35.19,NNE,27,1.5,7.5,86,0.00,n/a,n/a,-99.99,Henriksen +1-Wire,2013-07-27 13:53:00,
2013-07-27 09:58:00,72.2,67.6,35.19,NNE,22,1.6,5.0,85,0.00,n/a,n/a,-99.99,Henriksen +1-Wire,2013-07-27 13:58:00,
2013-07-27 10:03:00,72.4,67.5,35.20,North,6,1.2,5.5,84,0.00,n/a,n/a,-99.99,Henriksen +1-Wire,2013-07-27 14:03:00,
2013-07-27 10:08:00,72.8,67.7,35.20,North,1,1.7,5.5,83,0.00,n/a,n/a,-99.99,Henriksen +1-Wire,2013-07-27 14:08:00,
2013-07-27 12:13:00,81.5,67.5,35.22,SSW,200,1.8,6.0,61,0.00,n/a,n/a,-99.99,Henriksen +1-Wire,2013-07-27 16:13:00,
2013-07-27 12:18:00,82.0,68.3,35.21,SW,228,1.5,5.4,62,0.00,n/a,n/a,-99.99,Henriksen +1-Wire,2013-07-27 16:18:00,
2013-07-27 14:23:00,83.6,66.9,35.17,SW,214,3.7,7.9,56,0.00,n/a,n/a,-99.99,Henriksen +1-Wire,2013-07-27 18:23:00,
2013-07-27 14:28:00,82.1,66.8,35.17,SSW,206,3.3,7.9,59,0.00,n/a,n/a,-99.99,Henriksen +1-Wire,2013-07-27 18:28:00,
2013-07-27 14:33:00,81.6,67.9,35.17,SSW,197,2.8,5.4,62,0.00,n/a,n/a,-99.99,Henriksen +1-Wire,2013-07-27 18:33:00,
2013-07-27 14:38:00,81.0,68.2,35.17,SSW,199,2.6,5.3,64,0.00,n/a,n/a,-99.99,Henriksen +1-Wire,2013-07-27 18:38:00,
2013-07-27 14:43:00,80.2,68.2,35.17,South,178,2.3,5.3,66,0.00,n/a,n/a,-99.99,Henriksen +1-Wire,2013-07-27 18:43:00,
2013-07-27 14:48:00,79.1,68.0,35.17,SSW,195,2.6,4.9,68,0.00,n/a,n/a,-99.99,Henriksen +1-Wire,2013-07-27 18:48:00,
2013-07-27 14:53:00,78.8,68.5,35.17,SSW,192,2.3,4.9,70,0.00,n/a,n/a,-99.99,Henriksen +1-Wire,2013-07-27 18:53:00,
2013-07-27 14:58:00,78.9,69.3,35.17,SSW,195,2.1,7.2,71,0.00,n/a,n/a,-99.99,Henriksen +1-Wire,2013-07-27 18:58:00,
2013-07-27 15:03:00,79.0,69.7,35.17,SSW,213,1.9,7.2,72,0.00,n/a,n/a,-99.99,Henriksen +1-Wire,2013-07-27 19:03:00,
2013-07-27 15:08:00,79.0,70.0,35.16,SSW,205,3.5,6.5,73,0.00,n/a,n/a,-99.99,Henriksen +1-Wire,2013-07-27 19:08:00,
2013-07-27 15:13:00,78.9,70.0,35.16,South,184,2.6,8.4,73,0.00,n/a,n/a,-99.99,Henriksen +1-Wire,2013-07-27 19:13:00,
2013-07-27 15:18:00,78.8,69.9,35.16,South,186,4.7,8.4,73,0.00,n/a,n/a,-99.99,Henriksen +1-Wire,2013-07-27 19:18:00,
2013-07-27 15:23:00,78.8,70.1,35.16,SSW,201,4.6,7.2,74,0.00,n/a,n/a,-99.99,Henriksen +1-Wire,2013-07-27 19:23:00,
2013-07-27 17:28:00,71.5,69.1,35.13,SSW,199,2.3,7.1,92,0.00,n/a,n/a,-99.99,Henriksen +1-Wire,2013-07-27 21:28:00,
2013-07-27 17:33:00,71.5,69.2,35.13,SSW,203,3.7,5.8,92,0.00,n/a,n/a,-99.99,Henriksen +1-Wire,2013-07-27 21:33:00,
2013-07-27 17:38:00,71.5,69.4,35.14,SSW,202,3.3,5.8,93,0.00,n/a,n/a,-99.99,Henriksen +1-Wire,2013-07-27 21:38:00,
2013-07-27 17:43:00,71.4,69.4,35.13,SSW,195,2.6,5.4,93,0.00,n/a,n/a,-99.99,Henriksen +1-Wire,2013-07-27 21:43:00,
2013-07-27 17:48:00,71.3,69.3,35.12,SSW,194,2.7,5.6,93,0.00,n/a,n/a,-99.99,Henriksen +1-Wire,2013-07-27 21:48:00,
2013-07-27 17:53:00,71.1,69.3,35.12,SSW,209,2.3,5.6,93,0.00,n/a,n/a,-99.99,Henriksen +1-Wire,2013-07-27 21:53:00,
2013-07-27 17:58:00,70.9,69.2,35.11,SSW,208,2.8,5.0,94,0.00,n/a,n/a,-99.99,Henriksen +1-Wire,2013-07-27 21:58:00,
2013-07-27 18:03:00,70.6,69.2,35.11,SSW,207,2.3,4.6,94,0.00,n/a,n/a,-99.99,Henriksen +1-Wire,2013-07-27 22:03:00,
2013-07-27 18:08:00,70.5,69.2,35.11,SSW,203,2.4,4.2,95,0.00,n/a,n/a,-99.99,Henriksen +1-Wire,2013-07-27 22:08:00,
2013-07-27 18:13:00,70.3,69.2,35.11,SSW,194,2.9,4.4,96,0.00,n/a,n/a,-99.99,Henriksen +1-Wire,2013-07-27 22:13:00,
2013-07-27 18:18:00,70.3,69.4,35.10,SSW,195,3.1,5.4,96,0.00,n/a,n/a,-99.99,Henriksen +1-Wire,2013-07-27 22:18:00,
2013-07-27 18:23:00,70.3,69.5,35.10,SSW,203,2.6,5.4,97,0.00,n/a,n/a,-99.99,Henriksen +1-Wire,2013-07-27 22:23:00,
2013-07-27 18:28:00,70.2,69.5,35.10,SSW,200,1.7,5.0,97,0.00,n/a,n/a,-99.99,Henriksen +1-Wire,2013-07-27 22:28:00,
2013-07-27 18:33:00,70.1,69.3,35.10,SSW,194,2.9,4.8,97,0.00,n/a,n/a,-99.99,Henriksen +1-Wire,2013-07-27 22:33:00,
2013-07-27 18:39:00,69.8,69.2,35.11,SSW,197,1.1,4.8,97,0.00,n/a,n/a,-99.99,Henriksen +1-Wire,2013-07-27 22:39:00,
2013-07-27 18:44:00,69.6,69.1,35.11,SE,135,0.0,3.6,98,0.00,n/a,n/a,-99.99,Henriksen +1-Wire,2013-07-27 22:44:00,
2013-07-27 18:49:00,69.4,69.1,35.10,SSE,161,0.2,2.4,98,0.00,n/a,n/a,-99.99,Henriksen +1-Wire,2013-07-27 22:49:00,
2013-07-27 18:54:00,69.2,69.0,35.09,SSW,211,1.3,2.4,99,0.00,n/a,n/a,-99.99,Henriksen +1-Wire,2013-07-27 22:54:00,
2013-07-27 18:59:00,69.0,68.9,35.09,SSW,204,1.2,3.1,99,0.00,n/a,n/a,-99.99,Henriksen +1-Wire,2013-07-27 22:59:00,
2013-07-27 19:05:00,68.8,68.7,35.09,SSW,205,0.1,3.6,99,0.00,n/a,n/a,-99.99,Henriksen +1-Wire,2013-07-27 23:05:00,
2013-07-27 19:11:00,68.7,68.6,35.10,SW,230,0.1,2.5,99,0.00,n/a,n/a,-99.99,Henriksen +1-Wire,2013-07-27 23:11:00,
2013-07-27 19:16:00,68.5,68.5,35.11,SSW,207,0.3,2.4,99,0.00,n/a,n/a,-99.99,Henriksen +1-Wire,2013-07-27 23:16:00,
2013-07-27 19:22:00,68.4,68.4,35.11,SSE,154,0.1,2.4,99,0.00,n/a,n/a,-99.99,Henriksen +1-Wire,2013-07-27 23:22:00,
2013-07-27 19:27:00,68.2,68.2,35.11,SE,143,0.4,1.4,100,0.00,n/a,n/a,-99.99,Henriksen +1-Wire,2013-07-27 23:27:00,
2013-07-27 19:33:00,68.1,68.1,35.11,South,173,0.0,1.4,100,0.00,n/a,n/a,-99.99,Henriksen +1-Wire,2013-07-27 23:33:00,
2013-07-27 19:39:00,68.0,68.0,35.11,SSE,152,0.0,0.6,100,0.00,n/a,n/a,-99.99,Henriksen +1-Wire,2013-07-27 23:39:00,
2013-07-27 19:45:00,67.8,67.8,35.11,SSE,164,0.0,0.0,100,0.00,n/a,n/a,-99.99,Henriksen +1-Wire,2013-07-27 23:45:00,
2013-07-27 21:48:00,66.3,66.3,35.19,South,184,0.0,0.0,100,0.00,n/a,n/a,-99.99,Henriksen +1-Wire,2013-07-28 01:48:00,
2013-07-27 21:53:00,66.3,66.3,35.18,SSW,211,0.0,0.0,100,0.00,n/a,n/a,-99.99,Henriksen +1-Wire,2013-07-28 01:53:00,
2013-07-27 23:58:00,65.7,65.7,35.17,ENE,71,0.0,0.6,100,0.00,n/a,n/a,-99.99,Henriksen +1-Wire,2013-07-28 03:58:00,